Location: Alvis C Story Elementary School
(33.0968°N, 96.6364°W)
Time: 15:09:21
(UTC+00:00)

SKYMED 2 - Pass Details

Date: 08 December 2021
Orbit: 621 x 623 km, 97.9° (Epoch: 26 January)

Event Time Altitude Azimuth Distance (km) Brightness Sun altitude
Rises 12:25:23 0° 191° (S) 2,886 7.1 -10.9°
Reaches altitude 10° 12:27:48 10° 202° (SSW) 1,985 6.1 -10.4°
Maximum altitude 12:31:33 29° 263° (W) 1,149 4.5 -9.6°
Drops below altitude 10° 12:35:20 10° 323° (NW) 1,997 5.7 -8.9°
Enters shadow 12:36:42 - 331° (NNW) 2,495 6.2 -8.6°
